Location: Stilling
(56.0622°N, 9.9882°E)
Time: 23:49:30
(UTC+00:00)

IRIDIUM 114 - Pass Details

Date: 13 July 2020
Orbit: 776 x 779 km, 86.4° (Epoch: 14 August)

Event Time Altitude Azimuth Distance (km) Brightness Sun altitude
Exits shadow 22:25:28 13° 188° (S) 2,132 6.0 -11.2°
Maximum altitude 22:30:11 82° 276° (W) 796 4.4 -11.4°
Drops below altitude 10° 22:35:27 10° 4° (N) 2,346 8.2 -11.6°
Sets 22:37:49 0° 6° (N) 3,277 9.2 -11.6°
